Findlay, OH

8:46 PM EDT on September 21, 2019 (GMT -0400)
Findlay

Weather History for KFDY - July, 2019

Change the Weather History Date:

Sunday, July 14, 2019

  Actual Average Record
Temperature  
Mean Temperature 78 °F -  
Max Temperature 88 °F 84 °F 97 °F (1974)
Min Temperature 70 °F 63 °F 47 °F (1950)
Cooling Degree Days 14    
Growing Degree Days 28 (Base 50)    
Moisture  
Dew Point 65 °F    
Average Humidity 66    
Maximum Humidity 90    
Minimum Humidity 43    
Precipitation  
Precipitation 0.43 in - - ()
Sea Level Pressure  
Sea Level Pressure 30.08 in    
Wind  
Wind Speed 5 mph (NNW)    
Max Wind Speed 14 mph    
Max Gust Speed 34 mph    
Visibility 9 miles    
Events Rain , Thunderstorm    
Averages and records for this station are not official NWS values.
T = Trace of Precipitation, MM = Missing Value Source: NWS Daily Summary

Daily Weather History Graph

Daily Weather History Graph

Search for Another Location

Airport or City:

Astronomy

Jul. 14, 2019 Rise Set
Actual Time 6:14 AM EDT 9:06 PM EDT
Civil Twilight 5:41 AM EDT 9:38 PM EDT
Nautical Twilight 5:00 AM EDT 10:19 PM EDT
Astronomical Twilight 4:12 AM EDT 11:07 PM EDT
Moon 7:28 PM EDT (7/14) 4:15 AM EDT (7/14)
Length of Visible Light 15h 56m
Length of Day
14h 51m
Waxing Gibbous, 95% of the Moon is Illuminated
Jul 14
Waxing Gibbous
Jul 16
Full
Jul 24
Last Quarter
Jul 31
New
Aug 7
First Quarter

Hourly Weather History & Observations

Time (EDT) Temp. Heat Index Dew Point Humidity Pressure Visibility Wind Dir Wind Speed Gust Speed Precip Events Conditions
12:53 AM 77.0 °F - 68.0 °F 74% 30.01 in 10.0 mi West 5.8 mph - N/A   Scattered Clouds
1:53 AM 79.0 °F - 68.0 °F 69% 30.02 in 10.0 mi WNW 3.5 mph - N/A   Mostly Cloudy
2:53 AM 79.0 °F - 68.0 °F 69% 30.01 in 10.0 mi North 4.6 mph - N/A   Clear
3:53 AM 78.1 °F - 66.9 °F 68% 30.04 in 10.0 mi NNW 8.1 mph - N/A   Mostly Cloudy
4:14 AM 72.0 °F - 66.9 °F 84% 30.12 in 3.0 mi NW 13.8 mph 34.5 mph 0.10 in Rain , Thunderstorm Heavy Rain
4:27 AM 72.0 °F - 66.9 °F 84% 30.10 in 6.0 mi North 5.8 mph - 0.17 in Rain , Thunderstorm Thunderstorms and Rain
4:39 AM 72.0 °F - 66.9 °F 84% 30.10 in 10.0 mi Calm Calm - 0.18 in Rain Light Rain
4:53 AM 72.0 °F - 68.0 °F 87% 30.06 in 7.0 mi NE 6.9 mph - 0.22 in Rain Rain
5:53 AM 72.0 °F - 68.0 °F 87% 30.06 in 10.0 mi NNE 5.8 mph - 0.04 in   Partly Cloudy
6:53 AM 71.1 °F - 68.0 °F 90% 30.12 in 9.0 mi WNW 6.9 mph - 0.00 in Rain Light Rain
6:59 AM 71.1 °F - 66.9 °F 87% 30.14 in 1.8 mi NW 6.9 mph - 0.10 in Rain Heavy Rain
7:13 AM 70.0 °F - 66.0 °F 87% 30.13 in 3.0 mi Calm Calm - 0.17 in Rain Light Rain
7:53 AM 72.0 °F - 66.9 °F 84% 30.11 in 10.0 mi Calm Calm - 0.17 in   Scattered Clouds
8:53 AM 75.0 °F - 68.0 °F 79% 30.09 in 10.0 mi ENE 6.9 mph - N/A   Clear
9:53 AM 78.1 °F - 66.0 °F 66% 30.09 in 10.0 mi NE 8.1 mph - N/A   Clear
10:53 AM 80.1 °F 81.9 °F 64.9 °F 60% 30.11 in 10.0 mi Calm Calm - N/A   Clear
11:53 AM 82.0 °F 83.4 °F 64.0 °F 54% 30.10 in 10.0 mi Variable 4.6 mph - N/A   Clear
12:53 PM 84.0 °F 84.9 °F 63.0 °F 49% 30.10 in 10.0 mi NE 6.9 mph - N/A   Clear
1:53 PM 84.9 °F 85.9 °F 63.0 °F 48% 30.10 in 10.0 mi NNW 6.9 mph - N/A   Clear
2:53 PM 86.0 °F 87.3 °F 64.0 °F 48% 30.09 in 10.0 mi West 5.8 mph - N/A   Clear
3:53 PM 87.1 °F 87.8 °F 63.0 °F 44% 30.09 in 10.0 mi Variable 3.5 mph - N/A   Clear
4:53 PM 87.1 °F 87.8 °F 63.0 °F 44% 30.08 in 10.0 mi Variable 5.8 mph - N/A   Partly Cloudy
5:53 PM 87.1 °F 88.3 °F 64.0 °F 46% 30.06 in 10.0 mi West 5.8 mph - N/A   Clear
6:53 PM 87.1 °F 87.5 °F 62.1 °F 43% 30.05 in 10.0 mi WNW 4.6 mph - N/A   Clear
7:53 PM 84.9 °F 86.6 °F 64.9 °F 51% 30.05 in 10.0 mi West 4.6 mph - N/A   Clear
8:53 PM 82.9 °F 84.4 °F 64.0 °F 53% 30.07 in 10.0 mi SW 4.6 mph - N/A   Clear
9:53 PM 81.0 °F 81.9 °F 62.1 °F 52% 30.08 in 10.0 mi East 3.5 mph - N/A   Clear
10:53 PM 78.1 °F - 62.1 °F 58% 30.08 in 10.0 mi East 6.9 mph - N/A   Clear
11:53 PM 73.9 °F - 61.0 °F 64% 30.08 in 10.0 mi Calm Calm - N/A   Clear